Regional Weather Roundup
Issued by NWS

Home | Current Version | Previous Version | Text Only | Print | Product List | Glossary On
Versions: 1 2 3 4 5 6 7 8 9 10 11 12 13 14 15 16 17 18 19 20 21 22 23 24 25 26 27 28 29 30 31 32 33 34 35 36 37 38 39 40 41 42 43 44 45 46 47 48 49 50
000
ASUS43 KLSX 280859
RWRMO

WEATHER SUMMARY FOR MISSOURI
NATIONAL WEATHER SERVICE SPRINGFIELD MO
400 AM CDT TUE JUL 28 2015

NOTE: "FAIR" INDICATES FEW OR NO CLOUDS BELOW 12,000 FEET WITH NO
       SIGNIFICANT WEATHER AND/OR OBSTRUCTIONS TO VISIBILITY.
       CURRENT SKY AND/OR WEATHER CONDITIONS ARE NOT AVAILABLE FOR
       CHILLICOTHE AND FARMINGTON.

MOZ001>031-035>038-043-044-053-054-281000-
...NORTHERN AND WESTERN MISSOURI...

CITY           SKY/WX    TMP DP  RH WIND       PRES   REMARKS
KANSAS CTY INT CLEAR     76  73  91 SE6       29.88S
KANSAS C DTWN  CLEAR     79  75  87 E3        29.86F
LEE`S SUMMIT   CLEAR     79  74  84 SE3       29.89F
ST JOSEPH      CLEAR     75  72  90 SE5       29.86F
KIRKSVILLE     MOCLDY    73  69  87 S6        29.92F

$$
MOZ066>068-077>081-088>096-101>105-281000-
...SOUTHWEST MISSOURI...

CITY           SKY/WX    TMP DP  RH WIND       PRES   REMARKS
SPRINGFIELD    CLEAR     79  73  82 S8        29.93F
JOPLIN         CLEAR     80  73  79 S10       29.91F

$$
MOZ032>034-039>042-045>050-055>058-069>072-281000-
...CENTRAL MISSOURI...

CITY           SKY/WX    TMP DP  RH WIND       PRES   REMARKS
COLUMBIA       PTCLDY    73  71  93 SE6       29.93S
JEFFERSON CITY PTCLDY    74  72  93 SE5       29.91S
ROLLA          CLEAR     75  73  93 SE9       29.93F
SEDALIA        CLEAR     76  73  91 S7        29.92S
OSAGE BEACH    CLEAR     77  72  83 SE3       29.93S

$$
MOZ051-052-059>065-281000-
...EAST CENTRAL MISSOURI...

CITY           SKY/WX    TMP DP  RH WIND       PRES   REMARKS
ST LOUIS INTL  PTCLDY    77  70  79 CALM      29.94S
SPIRIT OF STL  MOCLDY    74  73  97 CALM      29.92S
ST CHARLES     PTCLDY    74  73  97 CALM      29.92S

$$
MOZ072>076-082>087-097>100-106>115-281000-
...SOUTH CENTRAL AND SOUTHEAST MISSOURI...

CITY           SKY/WX    TMP DP  RH WIND       PRES   REMARKS
CAPE GIRARDEAU PTCLDY    74  74 100 CALM      29.93S
FARMINGTON     PTCLDY    73  72  94 CALM      29.99F
POPLAR BLUFF   CLEAR     76  74  93 CALM      29.92S
WEST PLAINS    CLEAR     77  72  84 CALM      29.97S

$$


USA.gov is the U.S. government's official web portal to all federal, state and local government web resources and services.